Starlink 33982

operational
NORAD ID: 63707 Int'l Des: 2025-087 Owner: SPXS Country: US Constellation: starlink
LEOCIRCULAR

About Starlink 33982

Description loading...

Live Position

Loading 3D Globe...

Upcoming Passes

Altitude History

Altitude vs Time

uPlot chart will show altitude changes over time

Two-Line Element Set

1 63707U 25087L 25258.46850401 .00026658 00000-0 90887-3 0 9997
2 63707 53.1592 313.3591 0001328 79.6901 280.4249 15.30203294 22373
Epoch: Sep 15, 2025 • Age: 18 hours

Current Status

Altitude 494.5 km
Velocity 7.62 km/s
Sub-Earth Point -53.31°S, 139.57°E
Launch Date Apr 28, 2025
Age 0.3 years
Type internet

Technical Details

Classification Payload
Mass 575.00 kg
Dry Mass 530.00 kg
Total Mass 575.00 kg
Length 0.30 m
Diameter 4.10 m
Span 29.00 m
Shape Box + pan
Manufacturer SPXS
Bus Type Starlink V2MO
Phase Status In Orbit
Owner/State SPXS/US

Large Constellations

Loading constellations...